Regional Weather Roundup
Issued by NWS

Home | Current Version | Previous Version | Text Only | Print | Product List | Glossary Off
Versions: 1 2 3 4 5 6 7 8 9 10 11 12 13 14 15 16 17 18 19 20 21 22 23 24 25 26 27 28 29 30 31 32 33 34 35 36 37 38 39 40 41 42 43 44 45 46 47 48 49 50

000
ASUS43 KMKX 310111
RWRWI

WISCONSIN REGIONAL WEATHER ROUNDUP
NATIONAL WEATHER SERVICE MILWAUKEE/SULLIVAN WI
800 PM CDT WED JUL 30 2014

NOTE: "FAIR" INDICATES FEW OR NO CLOUDS BELOW 12,000 FEET WITH NO
SIGNIFICANT WEATHER AND/OR OBSTRUCTIONS TO VISIBILITY.

WIZ001-002-006>008-014>016-023>028-310200-
NORTHWEST WISCONSIN

CITY           SKY/WX    TMP DP  RH WIND       PRES   REMARKS
SUPERIOR ARPT  PTCLDY    74  60  62 W6        29.96S
ASHLAND        PTCLDY    65  60  84 SW5       29.96F
HAYWARD        CLOUDY    67  62  84 NE3       29.99F
SIREN          CLEAR     72  59  62 W5        30.01S
RICE LAKE      CLEAR     66  63  90 CALM      30.02F
LADYSMITH      CLOUDY    64  60  86 NW6G26    30.04R
EAU CLAIRE     CLOUDY    66  64  93 S6        30.00F
MENOMONIE      PTCLDY    74  58  57 SW5       30.01S
NEW RICHMOND   CLEAR     70  58  67 W5        30.03S
OSCEOLA        CLEAR     73  60  63 W5        30.04S
$$

WIZ003>005-009-010-017-018-310200-
NORTH CENTRAL WISCONSIN

CITY           SKY/WX    TMP DP  RH WIND       PRES   REMARKS
WOODRUFF       PTCLDY    65  55  69 NW3       30.00R
RHINELANDER    MOCLDY    66  57  72 CALM      30.01R
EAGLE RIVER    MOCLDY    57  56  99 CALM      30.00S
LAND O LAKES   MOCLDY    57  56  96 CALM      30.01S
PHILLIPS       PTCLDY    64  59  85 CALM      30.00F
TOMAHAWK       LGT RAIN  59  55  86 CALM      30.00S
MEDFORD        MOCLDY    66  59  76 SW3       30.01S
MERRILL        LGT RAIN  67  57  71 W7        30.00R
$$

WIZ029-030-035-036-043>047-310200-
CENTRAL WISCONSIN

CITY           SKY/WX    TMP DP  RH WIND       PRES   REMARKS
WAUSAU         MOCLDY    69  54  58 W12       29.98S
MOSINEE        CLEAR     68  54  60 W9        30.01S
MARSHFIELD     PTCLDY    67  58  72 SW5       30.00F
STEVENS POINT  PTCLDY    69  53  57 W6        30.00S
WAUPACA        PTCLDY    73  50  45 W8        29.99S
WAUTOMA        PTCLDY    71  52  51 W6        30.00S
WISC RAPIDS    PTCLDY    69  55  60 W3        30.01F
CAMP DOUGLAS   MOCLDY    66  61  82 W7        30.01F
$$

WIZ011>013-019>022-031-037>040-048>050-310200-
NORTHEAST WISCONSIN

CITY           SKY/WX    TMP DP  RH WIND       PRES   REMARKS
ANTIGO         MOCLDY    65  55  69 W7        29.99R
STURGEON BAY   PTCLDY    63  52  67 S8        29.97F
GREEN BAY      PTCLDY    67  55  65 W5        29.97S
MANITOWOC      PTCLDY    61  53  75 S7        29.99F
APPLETON       PTCLDY    68  50  52 VRB5      29.99R
CLINTONVILLE   PTCLDY    68  50  52 SW3       29.97F
OSHKOSH        CLEAR     70  52  52 CALM      29.98S
$$

WIZ032>034-041-042-053>061-310200-
SOUTHWEST WISCONSIN

CITY           SKY/WX    TMP DP  RH WIND       PRES   REMARKS
LA CROSSE      CLEAR     75  60  59 SW3       30.01S
SPARTA         PTCLDY    70  59  69 SW3       30.03S
VIROQUA        FAIR      68  61  79 W3        30.05R
BOSCOBEL       CLEAR     72  61  68 CALM      30.03S
PRAIRIE DU CHI CLEAR     73  58  61 CALM      30.02S
PLATTEVILLE    FAIR      70  57  63 NW6       30.04F
$$

WIZ056-057-062-063-064-067-068-310200-
SOUTH CENTRAL WISCONSIN

CITY           SKY/WX    TMP DP  RH WIND       PRES   REMARKS
BARABOO/DELLS  PTCLDY    68  52  56 W3        30.02S
LONE ROCK      CLEAR     72  58  61 NW3       30.02S
WATERTOWN      CLEAR     69  55  62 CALM      30.00F
MADISON        PTCLDY    70  52  52 NW3       30.01S
MIDDLETON      FAIR      69  50  51 NW3       30.02S
MONROE         CLEAR     70  52  52 NW6       30.03S
JANESVILLE     CLEAR     73  52  46 CALM      30.01S
$$

WIZ051-052-058>065-066-070>072-310200-
SOUTHEAST WISCONSIN

CITY           SKY/WX    TMP DP  RH WIND       PRES   REMARKS
MILWAUKEE      PTCLDY    65  51  60 S7        30.00F
WAUKESHA       PTCLDY    66  52  59 W5        30.01F
MILWAUKEE/TIMM CLEAR     70  50  49 NW3       30.01S
RACINE         CLEAR     65  52  62 S6        30.03S
BURLINGTON     CLEAR     63  55  76 CALM      30.01S
KENOSHA        CLEAR     64  56  75 S6        30.02S
FOND DU LAC    CLEAR     69  56  62 N5        29.99S
SHEBOYGAN      PTCLDY    64  53  67 S6        29.99S
WEST BEND      CLEAR     66  52  59 SW3       30.00S
JUNEAU         CLEAR     66  54  66 SW3       30.01F
$$

LSZ147-162-310200-
LAKE SUPERIOR

STATION/POSITION TIME  TEMP    WIND        PRES    WAVE
                       AIR SEA DIR/SP/G            HT/PER
                 (UTC) (F)     (DEG/KT/KT) (MB)    (FT/S)
W MID LAKE BUOY  0050   49 44  190/  6/  6 1014.2R   1/ 4
PORT WING        0040   72     170/  1/  1 1014.2S
SAXON HARBOR     0040          200/  5/  8 1014.2F
$$

LMZ867-665-643>646-310200-
LAKE MICHIGAN

STATION/POSITION TIME  TEMP    WIND        PRES    WAVE
                       AIR SEA DIR/SP/G            HT/PER
                 (UTC) (F)     (DEG/KT/KT) (MB)    (FT/S)
N MID LAKE BUOY  0050   57 54  190/  6/  6 1014.2F   0
NORTHPORT PIER   0000   63     160/  4/ 10 1014.2F
SISTER BAY       2355   65     160/  9/ 11   N/A
KEWAUNEE LAKESHO 0000   57     180/ 10/ 11 1014.9F
SHEBOYGAN LAKESH 0100   64     180/ 10/ 10 1015.6F
PORT WASHINGTON  0040   65     190/  3/  6 1016.3F
ATWATER BUOY     0100   63     150/  8     1016.9F
MILWAUKEE LAKESH 0000   63     150/  5/  6   N/A
S MID LAKE BUOY  0050   61 61   70/  2/  2 1016.3F   1
KENOSHA   LAKESH 0100   63     180/  5/  6 1015.9S
$$

TC  - TEMPERATURE IN CELSIUS
VSB - VISIBILITY IN STATUTE MILES
WCI - WIND CHILL INDEX
HX  - HEAT INDEX



USA.gov is the U.S. government's official web portal to all federal, state and local government web resources and services.